This demonstration page uses our WeatherBlox Daily Observations layout. Learn more.

Left ArrowRight Arrow

Hourly Observations for June 3, 2019

Temp ( °F °C ) Dew Point ( °F °C ) Humidity (%) Winds ( mph kmh ) Pressure ( in mb ) Visibility ( mi km ) Precip ( " mm )
12:59 am 00:59 Mostly Cloudy 75 23.9 66 18.9 74 74 SSW 14 22 29.78 1009 10 16 0.00 0.00
1:52 am 01:52 Mostly Cloudy with Thunderstorms 75 23.9 67 19.4 76 76 SW 12 19 29.79 1009 10 16 0.00 0.00
1:59 am 01:59 Mostly Cloudy with Thunderstorms 76 24.4 67 19.4 74 74 W 14 22 29.82 1010 10 16 0.00 0.00
2:15 am 02:15 Cloudy with Thunderstorms 75 23.9 67 19.4 76 76 W 10 17 29.82 1010 10 16 0.00 0.00
2:49 am 02:49 Cloudy 74 23.3 62 16.7 67 67 NW 14 22 29.82 1010 10 16 0.00 0.00
2:59 am 02:59 Cloudy with Thunderstorms 74 23.3 62 16.7 67 67 NW 17 28 29.83 1010 10 16 0.00 0.00
3:59 am 03:59 Cloudy with Thunderstorms 70 21.1 65 18.3 84 84 N 8 13 29.82 1010 10 16 0.09 2.29
4:15 am 04:15 Mostly Cloudy 70 21.1 65 18.3 84 84 N 9 15 29.82 1010 9 14 0.00 0.00
4:59 am 04:59 Mostly Cloudy 70 21.1 64 17.8 82 82 N 8 13 29.83 1010 8 13 0.00 0.00
5:59 am 05:59 Partly Cloudy 70 21.1 65 18.3 84 84 N 12 19 29.86 1011 7 11 0.00 0.00
6:59 am 06:59 Partly Cloudy 69 20.6 64 17.8 84 84 N 12 19 29.90 1012 7 11 0.00 0.00
7:59 am 07:59 Partly Cloudy 70 21.1 64 17.8 82 82 N 14 22 29.93 1014 7 11 0.00 0.00
8:59 am 08:59 Partly Cloudy 72 22.2 64 17.8 76 76 NE 12 19 29.94 1014 8 13 0.00 0.00
9:59 am 09:59 Mostly Cloudy 72 22.2 62 16.7 71 71 NNE 13 20 29.96 1015 8 13 0.00 0.00
10:47 am 10:47 Mostly Cloudy 73 22.8 59 15 62 62 NE 10 17 29.99 1016 10 16 0.00 0.00
10:59 am 10:59 Partly Cloudy 74 23.3 58 14.4 57 57 NNE 12 19 29.99 1016 10 16 0.00 0.00
11:59 am 11:59 Partly Cloudy 74 23.3 53 11.7 48 48 N 14 22 29.99 1016 10 16 0.00 0.00
12:59 pm 12:59 Partly Cloudy 74 23.3 52 11.1 46 46 NNE 14 22 29.99 1016 10 16 0.00 0.00
1:59 pm 13:59 Partly Cloudy 75 23.9 52 11.1 45 45 NE 9 15 30.00 1016 10 16 0.00 0.00
2:59 pm 14:59 Partly Cloudy 76 24.4 53 11.7 45 45 VRB 6 9 29.99 1016 10 16 0.00 0.00
3:59 pm 15:59 Partly Cloudy 75 23.9 52 11.1 45 45 NE 6 9 29.98 1015 10 16 0.00 0.00
4:59 pm 16:59 Partly Cloudy 74 23.3 53 11.7 48 48 ENE 6 9 29.99 1016 10 16 0.00 0.00
5:59 pm 17:59 Partly Cloudy 75 23.9 52 11.1 45 45 NE 3 6 29.99 1016 10 16 0.00 0.00
6:59 pm 18:59 Partly Cloudy 73 22.8 52 11.1 48 48 ENE 8 13 30.00 1016 10 16 0.00 0.00
7:59 pm 19:59 Partly Cloudy 72 22.2 52 11.1 50 50 ENE 5 7 30.03 1017 10 16 0.00 0.00
8:59 pm 20:59 Mostly Clear 70 21.1 52 11.1 53 53 NNE 8 13 30.04 1017 10 16 0.00 0.00
9:59 pm 21:59 Mostly Clear 71 21.7 46 7.8 41 41 N 7 11 30.08 1019 10 16 0.00 0.00
10:59 pm 22:59 Partly Cloudy 71 21.7 42 5.6 35 35 N 8 13 30.09 1019 10 16 0.00 0.00
11:59 pm 23:59 Partly Cloudy 71 21.7 42 5.6 35 35 N 7 11 30.10 1019 10 16 0.00 0.00

Powered by AerisWeather